TimeCDT,TemperatureF,Dew PointF,Humidity,Sea Level PressureIn,VisibilityMPH,Wind Direction,Wind SpeedMPH,Gust SpeedMPH,PrecipitationIn,Events,Conditions,WindDirDegrees,DateUTC
12:53 AM,37.0,36.0,96,30.17,6.0,Calm,Calm,-,N/A,,Clear,0,2013-04-20 05:53:00
1:53 AM,37.0,35.1,93,30.17,3.0,Calm,Calm,-,N/A,,Clear,0,2013-04-20 06:53:00
1:55 AM,36.0,35.1,97,30.17,1.5,Calm,Calm,-,N/A,,Clear,0,2013-04-20 06:55:00
2:08 AM,36.0,35.1,97,30.17,0.5,Calm,Calm,-,N/A,Fog,Fog,0,2013-04-20 07:08:00
2:22 AM,36.0,35.1,97,30.16,1.0,ENE,3.5,-,N/A,,Mist,70,2013-04-20 07:22:00
2:27 AM,36.0,35.1,97,30.16,2.0,NE,3.5,-,N/A,,Partly Cloudy,50,2013-04-20 07:27:00
2:36 AM,36.0,35.1,97,30.16,3.0,Calm,Calm,-,N/A,,Partly Cloudy,0,2013-04-20 07:36:00
2:40 AM,36.0,35.1,97,30.16,1.8,Calm,Calm,-,N/A,,Partly Cloudy,0,2013-04-20 07:40:00
2:53 AM,36.0,35.1,97,30.16,0.8,Calm,Calm,-,N/A,,Clear,0,2013-04-20 07:53:00
2:58 AM,36.0,35.1,97,30.16,1.0,Calm,Calm,-,N/A,,Mist,0,2013-04-20 07:58:00
3:04 AM,36.0,35.1,97,30.16,2.0,Calm,Calm,-,N/A,,Partly Cloudy,0,2013-04-20 08:04:00
3:11 AM,36.0,35.1,97,30.16,7.0,East,3.5,-,N/A,,Clear,90,2013-04-20 08:11:00
3:53 AM,35.1,34.0,96,30.17,2.0,Calm,Calm,-,N/A,,Clear,0,2013-04-20 08:53:00
4:06 AM,36.0,35.1,97,30.17,5.0,Calm,Calm,-,N/A,,Clear,0,2013-04-20 09:06:00
4:15 AM,35.1,34.0,96,30.17,1.8,Calm,Calm,-,N/A,,Clear,0,2013-04-20 09:15:00
4:29 AM,36.0,35.1,97,30.17,3.0,Calm,Calm,-,N/A,,Clear,0,2013-04-20 09:29:00
4:44 AM,36.0,35.1,97,30.18,2.0,Calm,Calm,-,N/A,,Clear,0,2013-04-20 09:44:00
4:53 AM,36.0,35.1,97,30.18,4.0,Calm,Calm,-,N/A,,Clear,0,2013-04-20 09:53:00
5:07 AM,36.0,35.1,97,30.18,1.8,Calm,Calm,-,N/A,,Clear,0,2013-04-20 10:07:00
5:14 AM,35.1,34.0,96,30.18,0.5,Calm,Calm,-,N/A,Fog,Fog,0,2013-04-20 10:14:00
5:21 AM,34.0,33.1,96,30.18,0.2,Calm,Calm,-,N/A,Fog,Fog,0,2013-04-20 10:21:00
5:30 AM,34.0,34.0,100,30.18,0.8,ENE,3.5,-,N/A,,Clear,60,2013-04-20 10:30:00
5:37 AM,34.0,34.0,100,30.18,2.0,Calm,Calm,-,N/A,,Clear,0,2013-04-20 10:37:00
5:45 AM,35.1,34.0,96,30.18,5.0,ENE,3.5,-,N/A,,Clear,60,2013-04-20 10:45:00
5:53 AM,35.1,33.1,92,30.18,7.0,ENE,3.5,-,N/A,,Clear,70,2013-04-20 10:53:00
6:53 AM,34.0,33.1,96,30.20,6.0,Calm,Calm,-,N/A,,Clear,0,2013-04-20 11:53:00
7:53 AM,39.0,37.0,93,30.22,9.0,Calm,Calm,-,N/A,,Clear,0,2013-04-20 12:53:00
8:53 AM,48.0,42.1,80,30.23,10.0,Calm,Calm,-,N/A,,Clear,0,2013-04-20 13:53:00
9:53 AM,55.0,39.0,55,30.23,10.0,Calm,Calm,-,N/A,,Clear,0,2013-04-20 14:53:00
10:53 AM,60.1,37.9,44,30.24,10.0,West,4.6,-,N/A,,Clear,270,2013-04-20 15:53:00
11:53 AM,64.0,35.1,34,30.22,10.0,Calm,Calm,-,N/A,,Clear,0,2013-04-20 16:53:00
12:53 PM,66.0,37.0,34,30.19,10.0,WSW,5.8,-,N/A,,Clear,250,2013-04-20 17:53:00
1:53 PM,68.0,37.0,32,30.17,10.0,SSE,11.5,-,N/A,,Clear,150,2013-04-20 18:53:00
2:53 PM,69.1,37.0,31,30.14,10.0,SE,9.2,18.4,N/A,,Clear,140,2013-04-20 19:53:00
3:53 PM,69.1,36.0,30,30.11,10.0,Variable,3.5,-,N/A,,Clear,0,2013-04-20 20:53:00
4:53 PM,68.0,37.0,32,30.10,10.0,ESE,9.2,-,N/A,,Clear,110,2013-04-20 21:53:00
5:53 PM,66.9,37.0,33,30.09,10.0,SE,12.7,-,N/A,,Clear,130,2013-04-20 22:53:00
6:53 PM,66.9,37.0,33,30.08,10.0,SE,10.4,16.1,N/A,,Clear,130,2013-04-20 23:53:00
7:53 PM,64.0,37.9,38,30.09,10.0,SE,3.5,-,N/A,,Clear,140,2013-04-21 00:53:00
8:53 PM,55.9,45.0,67,30.12,5.0,Calm,Calm,-,N/A,,Haze,0,2013-04-21 01:53:00
9:53 PM,52.0,46.0,80,30.14,10.0,Calm,Calm,-,N/A,,Clear,0,2013-04-21 02:53:00
10:53 PM,51.1,46.0,83,30.16,10.0,ENE,3.5,-,N/A,,Clear,70,2013-04-21 03:53:00
11:53 PM,55.0,41.0,59,30.17,10.0,ESE,4.6,-,N/A,,Clear,120,2013-04-21 04:53:00